Regional Weather Roundup
Issued by NWS Cleveland, OH

Home | Current Version | Previous Version | Text Only | Print | Product List | Glossary Off
Versions: 1 2 3 4 5 6 7 8 9 10 11 12 13 14 15 16 17 18 19 20 21 22 23 24 25 26 27 28 29 30 31 32 33 34 35 36 37 38 39 40 41 42 43 44 45 46 47 48 49 50

000
ASUS41 KCLE 022210
RWRCLE
OHIO REGIONAL WEATHER ROUNDUP
NATIONAL WEATHER SERVICE CLEVELAND, OH
600 PM EDT THU JUL 02 2015

NOTE: "FAIR" INDICATES FEW OR NO CLOUDS BELOW 12,000 FEET WITH NO
SIGNIFICANT WEATHER AND/OR OBSTRUCTIONS TO VISIBILITY.

OHZ001>008-015>018-024>027-034-035-043-044-022300-
   NORTHWEST OHIO

CITY           SKY/WX    TMP DP  RH WIND       PRES   REMARKS
DEFIANCE       MOSUNNY   74  54  49 E9        29.95F
FINDLAY        MOSUNNY   74  56  53 NE14      29.94S
TOLEDO EXPRESS PTSUNNY   73  53  49 NE12      29.96S
TOLEDO EXEC    SUNNY     72  52  49 E12       29.97F
LIMA           CLOUDY    72  60  66 NE9       29.94S
$$

OHZ009>014-019>023-028>033-038-089-022300-
   NORTHEAST OHIO

CITY           SKY/WX    TMP DP  RH WIND       PRES   REMARKS
CLE-HOPKINS    MOSUNNY   70  54  56 NE13      29.98F
CLE-LAKEFRONT  SUNNY     69  58  67 N12       29.95F
CUY CO. ARPT   MOSUNNY   72  55  56 NE14      29.98S
LORAIN-ELYRIA  SUNNY     70  52  52 NE9       29.97F
ASHTABULA      SUNNY     70  54  56 N8        29.98S
AKRON-CANTON   MOSUNNY   75  57  53 N9        29.94S
WOOSTER        SUNNY     73  57  57 N9        29.95S
MANSFIELD      MOSUNNY   72  58  61 N10       29.95S
YOUNGSTOWN     MOSUNNY   71  56  58 N10       29.94F
$$

OHZ042-051>053-060>062-070>072-077>081-022300-
  SOUTHWEST OHIO

CITY           SKY/WX    TMP DP  RH WIND       PRES   REMARKS
CINC-COVINGTON CLOUDY    75  67  76 E9        29.88R
CINC-LUNKEN    CLOUDY    76  67  73 NE6       29.87S
HAMILTON       PTSUNNY   79  66  64 E8        29.88S
DAYTON         PTSUNNY   76  63  64 E10       29.92S
WRIGHT-PAT AFB MOSUNNY   76  62  62 NE10      29.91S
DAYTON GENERAL PTSUNNY   74  65  73 E9        29.89S
WILMINGTON     PTSUNNY   74  63  68 E10       29.90S
$$

OHZ036-037-039>041-045>050-054>059-063>069-073>076-082>088-022300-
  CENTRAL AND SOUTHEAST OHIO

CITY           SKY/WX    TMP DP  RH WIND       PRES   REMARKS
COLUMBUS       CLOUDY    73  60  63 E6        29.91F
OSU AIRPORT    CLOUDY    75  59  57 E8        29.92F
BOLTON FIELD   CLOUDY    72  63  73 E5        29.92F
RICKENBACK AFB CLOUDY    71  62  75 NE6       29.91F
NEWARK         PTSUNNY   74  61  63 E5        29.92F
MARION         MOSUNNY   74  59  59 N14       29.94S
LANCASTER      CLOUDY    72  64  76 E5        29.93F
ZANESVILLE     NOT AVBL
NEW PHILLY     MOSUNNY   77  56  48 CALM      29.92F
$$



USA.gov is the U.S. government's official web portal to all federal, state and local government web resources and services.